Regional Weather Roundup
Issued by NWS

Home | Current Version | Previous Version | Text Only | Print | Product List | Glossary On
Versions: 1 2 3 4 5 6 7 8 9 10 11 12 13 14 15 16 17 18 19 20 21 22 23 24 25 26 27 28 29 30 31 32 33 34 35 36 37 38 39 40 41 42 43 44 45 46 47 48 49 50
000
ASUS45 KBOI 292310
RWRID
WEATHER ROUNDUP FOR IDAHO
NATIONAL WEATHER SERVICE BOISE ID
500 PM MDT SUN MAR 29 2015

NOTE: "FAIR" INDICATES FEW OR NO CLOUDS BELOW 12000 FEET
WITH NO SIGNIFICANT WEATHER AND/OR OBSTRUCTIONS TO VISIBILITY

IDZ012-014-300000-
SOUTHWEST IDAHO


CITY           SKY/WX    TMP DP  RH WIND       PRES   REMARKS
BOISE          SUNNY     66  25  21 W6        30.20F
CALDWELL       SUNNY     66  30  26 CALM      30.21F
MOUNTAIN HOME  SUNNY     66  22  18 W6        30.18F
$$

IDZ016-017-300000-
SOUTHCENTRAL IDAHO


CITY           SKY/WX    TMP DP  RH WIND       PRES   REMARKS
BURLEY         SUNNY     64  17  16 W9        30.20F
JEROME         SUNNY     63  19  18 W7        30.21F
TWIN FALLS     SUNNY     66  17  15 W8        30.21F
$$

IDZ019>023-300000-
SOUTHEAST IDAHO


CITY           SKY/WX    TMP DP  RH WIND       PRES   REMARKS
IDAHO FALLS    MOSUNNY   62  16  16 SW15G22   30.21F
POCATELLO      SUNNY     64  13  13 W18       30.21F
REXBURG        MOSUNNY   57  15  19 SW10G20   30.21F
$$

IDZ006-010-011-018-031-032-300000-
CENTRAL IDAHO MOUNTAINS


CITY           SKY/WX    TMP DP  RH WIND       PRES   REMARKS
MCCALL         SUNNY     56  26  31 SW8       30.22F
HAILEY         MOSUNNY   59  27  29 SE16      30.22F
STANLEY          N/A     55  19  24 W8        30.25S
SALMON         CLOUDY    61  21  21 SE5       30.15S
CHALLIS        MOSUNNY   63  17  17 CALM      30.14F
$$

IDZ002-004-006-007-026-300000-
NORTHERN IDAHO


CITY           SKY/WX    TMP DP  RH WIND       PRES   REMARKS
LEWISTON       MOSUNNY   67  39  35 CALM      30.16F
LOWELL           N/A     63  43  48 CALM      30.16F
COEUR D`ALENE  CLOUDY    59  37  44 W14       30.16F
MULLAN PASS    CLOUDY    40  31  70 SW7       30.19S
$$


USA.gov is the U.S. government's official web portal to all federal, state and local government web resources and services.